Regional Weather Roundup
Issued by NWS

Home | Current Version | Previous Version | Graphics & Text | Print | Product List | Glossary Off
Versions: 1 2 3 4 5 6 7 8 9 10 11 12 13 14 15 16 17 18 19 20 21 22 23 24 25 26 27 28 29 30 31 32 33 34 35 36 37 38 39 40 41 42 43 44 45 46 47 48 49 50

000
ASUS43 KMPX 240601
RWRMN
WEATHER ROUNDUP FOR MINNESOTA
NATIONAL WEATHER SERVICE TWIN CITIES/CHANHASSEN MN
100 AM CDT THU JUL 24 2014


NOTE: "FAIR" INDICATES FEW OR NO CLOUDS BELOW 12,000 FEET WITH NO
SIGNIFICANT WEATHER AND/OR OBSTRUCTIONS TO VISIBILITY. N/A MEANS
CURRENT SKY AND/OR WEATHER CONDITIONS ARE NOT AVAILABLE.

MNZ060>063-068>070-240700-
   Twin Cities Metro

CITY           SKY/WX    TMP DP  RH WIND       PRES   REMARKS
TWIN CITIES    CLEAR     67  58  72 N3        30.17R
6HR MIN TEMP:  66; 6HR MAX TEMP:  80;

ST PAUL        CLEAR     66  55  67 CALM      30.17R
CRYSTAL        CLEAR     63  55  75 CALM      30.16S
BLAINE         CLEAR     63  59  88 CALM      30.17R
LAKEVILLE      CLEAR     55  55 100 CALM      30.17R
EDEN PRAIRIE   CLEAR     66  58  75 CALM      30.16R
6HR MIN TEMP:  64; 6HR MAX TEMP:  79;

SOUTH ST PAUL  CLEAR     65  56  73 CALM      30.17R
LAKE ELMO      FAIR      59  59 100 CALM      30.18S
$$
MNZ001>005-007-008-013>017-022>024-027-028-240700-
   Northwest Minnesota

CITY           SKY/WX    TMP DP  RH WIND       PRES   REMARKS
BEMIDJI        CLEAR     56  53  91 W5        30.18S
HALLOCK        MOCLDY    61  55  82 CALM      30.16S
ROSEAU         PTCLDY    55  50  82 CALM      30.18S
WARROAD        CLEAR     54  50  87 SW1       30.19S
THIEF RVR FALL PTCLDY    59  55  88 CALM      30.17F
CROOKSTON      PTCLDY    57  55  94 CALM      30.17S
FOSSTON        PTCLDY    54  48  82 CALM      30.19S
DETROIT LAKES  CLEAR     61  57  88 CALM      30.19F
MOORHEAD       CLEAR     64  63  94 E5        30.17S
PARK RAPIDS    CLEAR     54  53  97 CALM      30.19S
$$
MNZ006-009>011-018-025>026-240700-
   North Central Minnesota

CITY           SKY/WX    TMP DP  RH WIND       PRES   REMARKS
BAUDETTE       PTCLDY    56  53  90 CALM      30.19S
FLAG ISLAND    CLEAR     64  50  59 CALM      30.17R
INTL FALLS     CLEAR     49  48  97 CALM      30.18F
6HR MIN TEMP:  49; 6HR MAX TEMP:  71;

WASKISH        PTCLDY    54  52  94 CALM      30.19S
BIG FORK       CLEAR     50  48  93 CALM      30.20S
LONGVILLE      CLEAR     54  52  94 CALM      30.18S
GRAND RAPIDS   MOCLDY    57  52  82 CALM      30.19S
CRANE LAKE     CLEAR     46  46 100 CALM      30.21S
ORR            CLEAR     50  48  93 CALM      30.17F
COOK           CLEAR     48  48 100 CALM      30.20F
$$
MNZ012-019>021-037-240700-
   Northeast Minnesota

CITY           SKY/WX    TMP DP  RH WIND       PRES   REMARKS
DULUTH         PTCLDY    58  50  75 E3        30.19S
6HR MIN TEMP:  58; 6HR MAX TEMP:  72;

ELY            CLEAR     48  46  93 CALM      30.20F
HIBBING        CLEAR     50  48  93 CALM      30.19S
EVELETH        CLEAR     46  45  93 CALM      30.21S
DULUTH HARBOR  CLOUDY    55  54  94 E8        30.19S
TWO HARBORS    CLEAR     50  45  81 CALM      30.18R
SILVER BAY     CLEAR     48  48 100 CALM      30.18S
GRAND MARAIS     N/A     50  48  93 NW3       30.18S
G MARAIS ARPRT CLEAR     45  43  93 CALM      30.21S
$$
MNZ029>031-032-039>041-046>048-054>057-064-240700-
   West Central Minnesota

CITY           SKY/WX    TMP DP  RH WIND       PRES   REMARKS
FERGUS FALLS   CLEAR     64  55  72 CALM      30.17F
WHEATON        CLEAR     59  57  94 SE5       30.19S
MORRIS         CLEAR     57  55  94 E3        30.17S
ALEXANDRIA     CLEAR     62  57  83 CALM      30.20S
ELBOW LAKE     FAIR      66  59  77 E5        30.17F
WADENA         CLEAR     55  54  94 CALM      30.19R
GLENWOOD       CLEAR     63  55  77 CALM      30.20S
APPLETON       CLEAR     61  57  88 CALM      30.16F
BENSON         CLEAR     61  59  94 CALM      30.18S
ORTONVILLE     CLEAR     64  55  72 E3        30.17S
MADISON        CLEAR     64  57  77 CALM      30.17S
WILLMAR        FAIR      63  55  77 CALM      30.20R
$$
MNZ033>034-036-042>043-049>051-058-059-240700-
   Central Minnesota

CITY           SKY/WX    TMP DP  RH WIND       PRES   REMARKS
ST CLOUD       CLEAR     57  54  89 CALM      30.17S
6HR MIN TEMP:  57; 6HR MAX TEMP:  80;

SAUK CENTRE    FAIR      58  56  94 CALM      30.19S
PAYNESVILLE    CLEAR     52  51  98 CALM      30.19S
AITKIN         HAZE      54  48  82 CALM      30.17S VSB 3/4
PINE RIVER     CLEAR     54  54 100 CALM      30.21S
BRAINERD       CLEAR     54  54 100 CALM      30.18S
STAPLES        CLEAR     55  55 100 CALM      30.18F
LONG PRAIRIE   FAIR      59  54  82 CALM      30.19S
LITTLE FALLS   CLEAR     55  54  94 CALM      30.18S
LITCHFIELD     CLEAR     61  57  88 CALM      30.19R
BUFFALO        CLEAR     61  55  81 CALM      30.18S
MAPLE LAKE     CLEAR     57  55  94 CALM      30.18F
$$
MNZ037-044-045-052-053-240700-
   East Central Minnesota

CITY           SKY/WX    TMP DP  RH WIND       PRES   REMARKS
PRINCETON      CLEAR     57  55  94 CALM      30.17F
MORA           CLEAR     55  54  94 CALM      30.19S
CAMBRIDGE      CLEAR     61  52  72 CALM      30.16R
RUSH CITY      PTCLDY    57  55  92 CALM      30.17S
MOOSE LAKE     MOCLDY    57  52  82 CALM      30.17S
HINCKLEY       FAIR      55  55 100 CALM      30.17S
CLOQUET        MOCLDY    55  52  88 CALM      30.19S
MCGREGOR         N/A     55  54  94 CALM      30.19R VSB 1
$$
MNZ071>073-080-081-089-090-097-098-240700-
   Southwest Minnesota

CITY           SKY/WX    TMP DP  RH WIND       PRES   REMARKS
MONTEVIDEO     CLEAR     61  55  82 CALM      30.18S
GRANITE FALLS  CLEAR     61  56  84 CALM      30.19S
CANBY          CLEAR     60  58  92 CALM      30.19S
MARSHALL       CLEAR     63  55  77 SW3       30.17S
REDWOOD FALLS  CLEAR     65  54  67 CALM      30.17S
OLIVIA         CLEAR     61  54  77 CALM      30.17S
PIPESTONE      CLEAR     63  55  77 E3        30.20S
WINDOM         CLEAR     63  54  72 CALM      30.20R
WORTHINGTON    CLEAR     57  54  88 CALM      30.21R
JACKSON        CLEAR     57  54  88 CALM      30.20R
TRACY          CLEAR     65  55  69 S5        30.20R
SLAYTON        CLEAR     62  55  77 CALM      30.21S
$$
MNZ065>067-074>077-082>085-091>093-240700-
   South Central Minnesota

CITY           SKY/WX    TMP DP  RH WIND       PRES   REMARKS
MANKATO        CLEAR     63  52  67 CALM      30.17S
NEW ULM        CLEAR     61  55  82 CALM      30.18R
ST JAMES       CLEAR     61  55  82 CALM      30.19S
FAIRMONT       CLEAR     61  54  77 NW3       30.18S
GLENCOE        CLEAR     61  54  76 CALM      30.17S
FARIBAULT      CLEAR     57  52  82 CALM      30.17S
OWATONNA       CLEAR     55  52  88 CALM      30.17S
WASECA         CLEAR     55  50  82 CALM      30.19S
ALBERT LEA     CLEAR     59  57  94 CALM      30.18R
$$
MNZ078>079-086>088-094>096-240700-
   Southeast Minnesota

CITY           SKY/WX    TMP DP  RH WIND       PRES   REMARKS
ROCHESTER      CLEAR     63  53  70 CALM      30.18S
6HR MIN TEMP:  63; 6HR MAX TEMP:  76;

RED WING       CLEAR     61  57  88 CALM      30.16R
STANTON        CLEAR     58  55  89 SW3       30.16S
DODGE CENTER   CLEAR     61  55  82 CALM      30.18S
WINONA         CLEAR     61  59  94 CALM      30.16S
AUSTIN         CLEAR     61  57  88 CALM      30.17S
PRESTON        CLEAR     61  57  89 CALM      30.18S
$$
ABBREVIATIONS USED IN REMARKS
   TC - TEMPERATURES IN CELSIUS
  WCI - WIND CHILL INDEX
   HX - HEAT INDEX
  VSB - VISIBILITY
$$



USA.gov is the U.S. government's official web portal to all federal, state and local government web resources and services.